Change the Weather History Date:

Monday, October 15, 2012

  Actual Average Record
Temperature  
Mean Temperature 60 °F 54 °F  
Max Temperature 81 °F 70 °F 88 °F (1968)
Min Temperature 39 °F 39 °F 24 °F (1966)
Degree Days  
Heating Degree Days 5 11  
Month to date heating degree days 154 126  
Since 1 July heating degree days 184 199  
Cooling Degree Days 0 0  
Month to date cooling degree days 3 7  
Year to date cooling degree days 1733 1223  
Growing Degree Days 10 (Base 50)    
Moisture  
Dew Point 36 °F    
Average Humidity 49    
Maximum Humidity 83    
Minimum Humidity 15    
Precipitation  
Precipitation 0.00 in 0.04 in 0.49 in (1960)
Month to date precipitation 0.25 0.44  
Year to date precipitation 5.51 10.35  
Sea Level Pressure  
Sea Level Pressure 29.89 in    
Wind  
Wind Speed 8 mph (WSW)    
Max Wind Speed 15 mph    
Max Gust Speed 17 mph    
Visibility 10 miles    
Events      
T = Trace of Precipitation, MM = Missing Value Source: NWS Daily Summary

Daily Weather History Graph

Daily Weather History Graph

Search for Another Location

Airport or City:

Trip Planner

Search our weather history database for the weather conditions in past years. The results will help you decide how hot, cold, wet, or windy it might be!

Date:

Astronomy

Oct. 15, 2012 Rise Set
Actual Time 7:03 AM MDT 6:15 PM MDT
Civil Twilight 6:36 AM MDT 6:42 PM MDT
Nautical Twilight 6:06 AM MDT 7:12 PM MDT
Astronomical Twilight 5:35 AM MDT 7:43 PM MDT
Moon 7:15 AM MDT (10/15) 6:18 PM MDT (10/15)
Length of Visible Light 12h 05m
Length of Day
11h 12m
New Moon, 0% of the Moon is Illuminated
Oct 15
New Moon
Oct 21
First Quarter
Oct 29
Full
Nov 6
Last Quarter
Nov 13
New

Hourly Weather History & Observations

Time (MDT) Temp. Windchill Dew Point Humidity Pressure Visibility Wind Dir Wind Speed Gust Speed Precip Events Conditions
12:53 AM 51.1 °F - 37.9 °F 61% 30.03 in 10.0 mi ESE 5.8 mph - N/A   Clear
1:53 AM 45.0 °F 40.6 °F 39.0 °F 80% 30.04 in 10.0 mi WNW 8.1 mph - N/A   Clear
2:53 AM 43.0 °F 38.8 °F 37.9 °F 82% 30.03 in 10.0 mi West 6.9 mph - N/A   Clear
3:53 AM 42.1 °F 36.1 °F 35.1 °F 76% 30.01 in 10.0 mi WSW 10.4 mph - N/A   Clear
4:53 AM 41.0 °F 33.5 °F 34.0 °F 76% 30.01 in 10.0 mi West 13.8 mph - N/A   Clear
5:53 AM 39.9 °F 33.4 °F 33.1 °F 77% 30.02 in 10.0 mi West 10.4 mph - N/A   Clear
6:53 AM 39.9 °F 35.1 °F 33.1 °F 77% 30.04 in 10.0 mi SW 6.9 mph - N/A   Clear
7:53 AM 45.0 °F 39.7 °F 34.0 °F 65% 30.03 in 10.0 mi West 10.4 mph - N/A   Clear
8:53 AM 52.0 °F - 36.0 °F 54% 30.01 in 10.0 mi West 11.5 mph - N/A   Clear
9:53 AM 57.0 °F - 36.0 °F 45% 29.98 in 10.0 mi WSW 8.1 mph - N/A   Clear
10:53 AM 63.0 °F - 37.0 °F 38% 29.95 in 10.0 mi WSW 6.9 mph - N/A   Clear
11:53 AM 69.1 °F - 37.0 °F 31% 29.90 in 10.0 mi SSW 3.5 mph - N/A   Clear
12:53 PM 73.9 °F - 35.1 °F 24% 29.84 in 10.0 mi SSW 5.8 mph - N/A   Clear
1:53 PM 75.9 °F - 34.0 °F 22% 29.81 in 10.0 mi Calm Calm - N/A   Clear
2:53 PM 79.0 °F - 34.0 °F 20% 29.77 in 10.0 mi Variable 3.5 mph - N/A   Clear
3:53 PM 80.1 °F - 34.0 °F 19% 29.75 in 10.0 mi East 6.9 mph - N/A   Clear
4:53 PM 80.1 °F - 28.0 °F 15% 29.73 in 10.0 mi ESE 5.8 mph - N/A   Clear
5:53 PM 73.9 °F - 36.0 °F 25% 29.75 in 10.0 mi ENE 8.1 mph - N/A   Clear
6:53 PM 66.0 °F - 37.9 °F 36% 29.78 in 10.0 mi East 11.5 mph - N/A   Clear
7:53 PM 63.0 °F - 37.9 °F 40% 29.77 in 10.0 mi East 5.8 mph - N/A   Clear
8:53 PM 57.9 °F - 37.9 °F 47% 29.78 in 10.0 mi NE 6.9 mph - N/A   Clear
9:53 PM 57.9 °F - 37.0 °F 46% 29.75 in 10.0 mi NNE 4.6 mph - N/A   Clear
10:53 PM 57.0 °F - 37.0 °F 47% 29.74 in 10.0 mi Calm Calm - N/A   Clear
11:53 PM 51.1 °F - 37.0 °F 59% 29.74 in 10.0 mi West 11.5 mph - N/A   Clear